Lincoln, NE

3:14 PM CDT on May 26, 2017 (GMT -0500)
Lincoln Municipal

Weather History for KLNK - July, 2014

Change the Weather History Date:

Monday, July 28, 2014

  Actual Average Record
Temperature  
Mean Temperature 69 °F 78 °F  
Max Temperature 81 °F 89 °F 106 °F (1940)
Min Temperature 57 °F 66 °F 47 °F (1994)
Degree Days  
Heating Degree Days 0 0  
Month to date heating degree days 2 0  
Since 1 June heating degree days 4 16  
Since 1 July heating degree days 2 0  
Cooling Degree Days 4 13  
Month to date cooling degree days 306 357  
Year to date cooling degree days 744 678  
Since 1 June cooling degree days 584 599  
Growing Degree Days 19 (Base 50)    
Moisture  
Dew Point 54 °F    
Average Humidity 61    
Maximum Humidity 86    
Minimum Humidity 36    
Precipitation  
Precipitation 0.00 in 0.10 in 1.97 in (1892)
Month to date precipitation 0.51 3.08  
Year to date precipitation 16.16 17.77  
Snow  
Snow 0.00 in 0.00 in - ()
Month to date snowfall 0.0 0.0  
Since 1 July snowfall 0.0 0.0  
Snow Depth 0.00 in    
Sea Level Pressure  
Sea Level Pressure 30.23 in    
Wind  
Wind Speed 10 mph (NNW)    
Max Wind Speed 18 mph    
Max Gust Speed 24 mph    
Visibility 10 miles    
Events      
T = Trace of Precipitation, MM = Missing Value Source: NWS Daily Summary

Daily Weather History Graph

Daily Weather History Graph

Search for Another Location

Airport or City:

Trip Planner

Search our weather history database for the weather conditions in past years. The results will help you decide how hot, cold, wet, or windy it might be!

Date:

Astronomy

Jul. 28, 2014 Rise Set
Actual Time 6:19 AM CDT 8:46 PM CDT
Civil Twilight 5:48 AM CDT 9:17 PM CDT
Nautical Twilight 5:09 AM CDT 9:56 PM CDT
Astronomical Twilight 4:26 AM CDT 10:39 PM CDT
Moon 8:03 AM CDT (7/28) 9:27 PM CDT (7/28)
Length of Visible Light 15h 29m
Length of Day
14h 27m
Waxing Crescent, 3% of the Moon is Illuminated
Jul 28
Waxing Crescent
Aug 3
First Quarter
Aug 10
Full
Aug 17
Last Quarter
Aug 25
New

Hourly Weather History & Observations

Time (CDT) Temp. Dew Point Humidity Pressure Visibility Wind Dir Wind Speed Gust Speed Precip Events Conditions
12:54 AM 66.0 °F 57.0 °F 73% 30.20 in 10.0 mi North 11.5 mph - N/A   Clear
1:54 AM 64.0 °F 57.0 °F 78% 30.21 in 10.0 mi North 9.2 mph - N/A   Clear
2:54 AM 63.0 °F 55.9 °F 78% 30.21 in 10.0 mi NNW 9.2 mph - N/A   Clear
3:54 AM 57.0 °F 53.1 °F 87% 30.21 in 10.0 mi North 3.5 mph - N/A   Clear
4:54 AM 61.0 °F 54.0 °F 78% 30.22 in 10.0 mi NW 5.8 mph - N/A   Clear
5:54 AM 61.0 °F 54.0 °F 78% 30.23 in 10.0 mi NW 6.9 mph - N/A   Clear
6:54 AM 60.1 °F 54.0 °F 80% 30.25 in 10.0 mi WNW 6.9 mph - N/A   Clear
7:54 AM 63.0 °F 55.0 °F 75% 30.26 in 10.0 mi NNW 8.1 mph - N/A   Clear
8:54 AM 68.0 °F 54.0 °F 61% 30.27 in 10.0 mi NNW 12.7 mph - N/A   Mostly Cloudy
8:57 AM 68.0 °F 55.0 °F 63% 30.30 in 10.0 mi North 10.4 mph - N/A   Scattered Clouds
9:54 AM 71.1 °F 54.0 °F 55% 30.27 in 10.0 mi NNE 13.8 mph - N/A   Scattered Clouds
10:54 AM 73.9 °F 54.0 °F 50% 30.28 in 10.0 mi NNW 12.7 mph - N/A   Scattered Clouds
11:54 AM 75.0 °F 54.0 °F 48% 30.27 in 10.0 mi North 13.8 mph - N/A   Scattered Clouds
12:54 PM 78.8 °F 53.6 °F 42% 30.29 in 10.0 mi NNW 15.0 mph 20.7 mph N/A   Partly Cloudy
1:54 PM 78.1 °F 53.1 °F 42% 30.25 in 10.0 mi North 8.1 mph - N/A   Mostly Cloudy
2:54 PM 78.8 °F 53.6 °F 42% 30.26 in 10.0 mi North 10.4 mph - N/A   Mostly Cloudy
3:54 PM 78.1 °F 52.0 °F 40% 30.23 in 10.0 mi North 13.8 mph - N/A   Scattered Clouds
4:54 PM 79.0 °F 53.1 °F 40% 30.21 in 10.0 mi North 11.5 mph - N/A   Scattered Clouds
5:54 PM 80.1 °F 52.0 °F 38% 30.19 in 10.0 mi NNW 12.7 mph - N/A   Partly Cloudy
6:54 PM 78.1 °F 51.1 °F 39% 30.18 in 10.0 mi North 13.8 mph - N/A   Clear
7:54 PM 75.9 °F 53.1 °F 45% 30.18 in 10.0 mi North 9.2 mph - N/A   Clear
8:54 PM 69.1 °F 54.0 °F 58% 30.18 in 10.0 mi North 5.8 mph - N/A   Clear
9:54 PM 66.0 °F 53.1 °F 63% 30.19 in 10.0 mi NNW 4.6 mph - N/A   Clear
10:54 PM 62.1 °F 54.0 °F 75% 30.19 in 10.0 mi North 5.8 mph - N/A   Clear
11:54 PM 61.0 °F 53.1 °F 75% 30.20 in 10.0 mi NNW 4.6 mph - N/A   Clear